Tracking 27188 objects as of 2-Apr-2023
HD Live streaming from Space Station
objects crossing your sky now

COSMOS 1174

Track COSMOS 1174 now!
10-day predictions
COSMOS 1174 is classified as:


NORAD ID: 11765
Int'l Code: 1980-030A
Perigee: 381.4 km
Apogee: 1,123.1 km
Inclination: 66.1 °
Period: 99.7 minutes
Semi major axis: 7123 km
RCS: 4.5129 m2 (large)
Launch date: April 18, 1980
Source: Commonwealth of Independent States (former USSR) (CIS)
Launch site: TYURATAM MISSILE AND SPACE COMPLEX (TTMTR)
Your satellite tracking list
Your tracking list is empty




NASA's NSSDC Master Catalog

Two Line Element Set (TLE):
1 11765U 80030A   23091.56721382  .00007803  00000-0  40474-3 0  9990
2 11765  66.0840 255.3919 0520624 109.6829 256.1202 14.44067245208773
Source of the keplerian elements: AFSPC